Back to catalog

WINDS

KIZUNA

AliveCommunicationsGEO
NORAD 32500·PAYLOAD·🇯🇵 Japan

Launched Feb 23, 2008 from Tanegashima Space Center

Loading…

TLE

FreshSource: Space-Track

Epoch: Sep 14, 2026, 13:53 UTC

1 32500U 08007A   26257.57874103  .00000107  00000-0  00000-0 0  9990
2 32500   8.7416  61.1310 0003152 133.7508  24.7573  1.00330748 67791

Track WINDS in real time with AllMySat

Download on the App Store